カタログに戻る

COSMOS 2585

運用中ナビゲーションPO
NORAD 63288·PAYLOAD·🇷🇺 Russia

打ち上げ Mar 16, 2025 から Plesetsk Cosmodrome

Loading…

次のパス (今後24時間)

TLE

最新Source: Space-Track

元期: Sep 14, 2026, 04:05 UTC

1 63288U 25054A   26257.17041969  .00000026  00000-0  11962-3 0  9992
2 63288  82.4974  23.2404 0024490 198.9862 161.0307 12.42870846 67913

AllMySatでCOSMOS 2585をリアルタイム追跡

Download on the App Store